Regional Weather Roundup
Issued by NWS

Home | Current Version | Previous Version | Text Only | Print | Product List | Glossary Off
Versions: 1 2 3 4 5 6 7 8 9 10 11 12 13 14 15 16 17 18 19 20 21 22 23 24 25 26 27 28 29 30 31 32 33 34 35 36 37 38 39 40 41 42 43 44 45 46 47 48 49 50

000
ASUS45 KCYS 060810
RWRWY

WYOMING REGIONAL WEATHER ROUNDUP
NATIONAL WEATHER SERVICE CHEYENNE WY
100 AM MST FRI MAR 06 2015

NOTE:  "FAIR" INDICATES FEW OR NO CLOUDS BELOW 12,000 FEET
WITH NO SIGNIFICANT WEATHER AND/OR OBSTRUCTIONS TO VISIBILITY.

WYZ001-060900-
YELLOWSTONE NATIONAL PARK

CITY           SKY/WX    TMP DP  RH WIND       PRES   REMARKS
LK YELLOWSTONE   N/A      6   1  80 CALM      30.34R
W YELLOWSTONE  NOT AVBL

$$
WYZ002>013-054>058-071-098>099-060900-
NORTHERN WYOMING

CITY           SKY/WX    TMP DP  RH WIND       PRES   REMARKS
JACKSON        FAIR      12   9  85 N6        30.36S WCI   3
CODY           FAIR      39  10  30 W10G28    30.16S WCI  32
GREYBULL       FAIR      24  17  74 SE5       30.23S WCI  18
WORLAND        FAIR      24  16  71 S9        30.22F WCI  14
SHERIDAN       FAIR      26  16  65 S5        30.14S WCI  20
BUFFALO        FAIR      31  15  52 W3        30.15S
GILLETTE       MOCLDY    32  18  56 W12       30.13S WCI  23
HULETT         FAIR      32  18  55 SW9       30.13R WCI  24
NEWCASTLE      FAIR      21  14  73 CALM      30.16S

$$
WYZ014>020-022>026-101>103-060900-
CENTRAL WYOMING

CITY           SKY/WX    TMP DP  RH WIND       PRES   REMARKS
BIG PINEY      MOCLDY    20  13  74 SW3       30.36R
PINEDALE       FAIR       9   3  78 W7        30.36S WCI  -3
DUBOIS         FAIR      23   9  54 NW16G23   30.27S WCI  10
LANDER         FAIR      21  12  68 NW7       30.23R WCI  12
RIVERTON       FAIR      16   8  71 CALM      30.24S
CASPER         CLOUDY    31  20  63 SW14      30.21S WCI  21
DOUGLAS        CLOUDY    21  14  74 CALM      30.21S

$$
WYZ021-027>030-104>119-060900-
SOUTHERN WYOMING

CITY           SKY/WX    TMP DP  RH WIND       PRES   REMARKS
EVANSTON       FAIR      21  12  68 SW9       30.39F WCI  11
FORT BRIDGER   CLOUDY    29  13  51 SW3       30.40S
ROCK SPRINGS   FAIR      25  14  63 S12       30.34S WCI  14
DIXON          FAIR      13   9  83 CALM      30.41S
RAWLINS        FAIR      27  15  61 W29G43    30.26S WCI  11
SARATOGA       CLOUDY    23  12  63 MISG      30.33S
LARAMIE        CLOUDY    26  12  55 S7        30.24F WCI  18
CHEYENNE       CLOUDY    36  12  37 W22G30    30.22S WCI  25
TORRINGTON     FAIR      29  20  69 W3        30.21S
PINE BLUFFS    CLOUDY    28  18  64 SW3       30.23S

$$



USA.gov is the U.S. government's official web portal to all federal, state and local government web resources and services.